Vorticity
7 5 7 5 12 11 5 17 7 10 12 15 13 11 10 11 10 10 10 9 9 9 9 9 10 10 10 11 11 11 12 13 11 14 15 17 2 -4 10 27 19 24 20
11 22 28 11 15 5 22 10 9 11 13 12 10 11 11 12 11 10 10 9 10 10 10 10 10 10 10 10 10 10 10 11 13 14 16 14 10 14 -5 14 27 22 18
1 10 24 15 4 21 9 8 11 12 13 10 10 11 10 9 10 10 11 11 11 11 11 10 10 10 10 9 9 9 9 9 9 10 11 11 11 11 13 0 4 34 17
7 10 19 9 19 10 7 10 11 12 10 10 10 9 9 10 9 9 8 8 8 8 8 8 8 8 8 8 8 8 8 8 8 8 10 10 10 11 15 17 9 -1 45
4 15 16 18 8 8 9 12 12 11 10 9 8 10 8 8 7 6 6 6 6 6 6 6 8 8 8 7 7 7 8 8 8 8 8 10 11 12 9 9 18 11 1
10 17 17 8 9 7 11 12 11 10 9 8 9 8 7 5 6 6 6 6 6 6 6 6 7 8 7 6 6 7 7 7 7 8 7 7 7 7 9 10 7 9 11
3 28 10 9 7 10 12 12 10 8 8 9 8 6 5 6 5 6 5 6 6 6 6 6 6 7 8 7 6 5 6 7 8 8 8 8 7 7 8 8 8 7 7
26 14 8 8 9 11 12 11 10 8 8 7 7 6 6 5 5 5 5 5 5 5 5 6 7 7 7 8 8 6 5 6 7 7 7 8 7 7 7 7 8 7 8
16 8 9 8 10 11 12 11 9 8 7 7 5 6 5 5 5 5 5 5 6 6 6 6 5 6 7 7 8 8 7 6 6 7 7 8 7 6 6 6 7 7 9
10 11 7 9 11 12 10 9 8 8 7 5 6 5 5 5 5 4 4 5 5 5 5 6 7 6 6 8 8 8 8 7 7 9 10 9 7 7 7 7 7 7 8
9 7 7 10 12 11 10 8 8 7 6 6 5 5 5 5 5 4 4 4 4 4 4 5 6 7 7 5 7 10 9 9 8 9 8 8 8 8 7 7 8 8 8
10 6 10 11 12 12 9 8 7 7 5 6 5 5 5 5 4 4 3 3 3 4 4 5 5 7 8 7 5 8 10 8 8 8 9 8 8 8 9 8 7 8 9
6 12 11 12 11 10 8 8 7 6 6 5 5 5 4 4 4 3 3 3 3 4 4 4 6 7 8 8 6 7 11 9 8 9 9 8 8 9 9 10 10 10 8
9 10 10 13 11 11 8 7 7 7 7 6 5 4 4 4 3 3 3 3 4 4 5 5 6 7 8 8 7 7 11 9 8 9 8 8 9 10 9 10 9 9 9
11 10 11 12 10 10 8 7 7 6 6 5 5 4 4 4 3 3 3 4 4 5 5 6 7 7 9 8 8 10 12 9 9 9 9 9 9 9 10 11 10 10 9
10 10 12 13 10 9 7 7 7 6 5 5 4 3 4 3 3 3 3 4 5 5 6 7 7 8 9 8 9 11 10 9 9 8 9 8 8 9 9 9 9 9 9
12 12 11 11 10 9 7 7 8 6 4 5 4 4 4 3 4 4 4 5 5 7 7 8 9 10 10 10 11 10 10 11 10 10 9 9 9 9 9 9 8 8 8
11 11 10 10 9 9 7 6 5 5 5 4 5 4 5 4 4 4 5 5 7 8 8 9 9 10 10 10 9 12 12 12 11 11 10 9 9 10 10 9 9 9 9
12 13 12 11 11 10 8 7 6 6 6 5 5 5 5 5 5 6 5 7 8 8 8 10 10 11 9 9 13 13 13 11 11 10 9 9 9 9 9 10 9 9 9
12 15 11 10 11 10 10 9 8 7 6 6 5 6 6 6 7 6 7 9 9 9 10 11 9 8 10 15 13 13 13 12 10 8 8 8 8 9 10 9 10 10 10
11 15 14 11 11 11 11 10 10 9 8 7 7 7 7 7 8 9 9 9 10 11 11 7 9 15 15 14 13 13 13 10 8 7 7 7 9 9 10 10 10 10 10
10 15 16 14 11 11 11 10 10 10 9 9 10 9 8 9 10 9 10 11 10 8 6 13 17 13 14 15 14 12 9 7 6 6 7 8 10 11 11 11 11 11 11
11 14 16 14 12 11 10 10 10 10 10 10 10 10 10 11 11 11 11 8 6 13 17 14 14 14 15 15 12 9 7 6 6 6 8 10 12 12 13 12 12 13 12
14 16 16 15 13 13 12 12 11 12 12 13 12 12 12 11 11 7 7 16 16 14 13 12 13 16 15 12 8 6 5 5 6 7 11 13 13 13 12 12 13 12 13
15 15 14 14 13 13 12 13 14 13 13 13 12 10 8 7 13 19 16 11 14 13 12 11 15 16 12 7 6 5 5 5 7 12 15 14 14 12 13 13 13 13 13
12 13 14 14 14 14 13 11 11 10 11 11 14 17 17 15 12 12 13 14 13 11 11 14 16 12 7 5 5 5 5 7 14 15 15 13 13 13 13 14 13 12 13
Height
3061 3061 3059 3057 3056 3055 3054 3053 3053 3051 3048 3047 3046 3044 3042 3040 3037 3034 3031 3027 3024 3021 3018 3016 3013 3011 3008 3005 3002 3000 2998 2997 2994 2991 2989 2986 2984 2979 2974 2966 2962 2958 2955
3055 3055 3053 3051 3050 3050 3050 3050 3049 3047 3046 3045 3043 3043 3041 3039 3036 3033 3030 3027 3025 3022 3020 3017 3014 3011 3008 3005 3002 2999 2996 2994 2992 2990 2987 2984 2980 2976 2971 2966 2958 2953 2950
3048 3048 3045 3045 3046 3045 3045 3045 3045 3044 3044 3043 3042 3041 3040 3037 3035 3033 3031 3029 3026 3024 3021 3018 3015 3012 3010 3006 3003 3000 2996 2993 2991 2988 2985 2981 2977 2973 2969 2964 2959 2952 2948
3041 3041 3041 3041 3040 3041 3041 3041 3041 3041 3041 3041 3040 3040 3038 3036 3035 3033 3032 3030 3027 3025 3023 3020 3017 3014 3011 3007 3004 3001 2998 2994 2991 2988 2985 2981 2978 2973 2968 2964 2959 2954 2947
3034 3035 3035 3035 3036 3037 3038 3039 3038 3038 3038 3039 3038 3038 3037 3035 3033 3032 3031 3029 3027 3025 3022 3019 3016 3013 3010 3007 3004 3001 2998 2995 2991 2987 2984 2980 2977 2973 2968 2963 2959 2953 2947
3028 3028 3029 3031 3032 3033 3034 3035 3035 3035 3036 3036 3037 3036 3035 3033 3033 3032 3030 3028 3026 3024 3021 3018 3015 3012 3009 3006 3003 3000 2997 2994 2990 2987 2982 2978 2975 2971 2967 2962 2957 2954 2949
3021 3023 3025 3027 3028 3029 3030 3031 3031 3032 3033 3034 3034 3034 3033 3032 3031 3031 3029 3027 3025 3023 3020 3017 3014 3011 3007 3004 3001 2998 2994 2991 2988 2985 2981 2978 2973 2968 2964 2961 2956 2951 2946
3016 3018 3021 3022 3024 3025 3026 3027 3029 3030 3031 3031 3032 3032 3032 3031 3030 3029 3028 3026 3024 3021 3019 3016 3012 3009 3005 3002 2999 2996 2992 2989 2985 2982 2978 2974 2970 2965 2960 2955 2951 2947 2943
3011 3013 3016 3018 3019 3021 3022 3024 3025 3026 3027 3028 3029 3030 3029 3029 3028 3027 3025 3024 3022 3019 3017 3014 3010 3006 3003 3000 2996 2992 2988 2984 2981 2977 2973 2969 2965 2962 2958 2953 2950 2947 2943
3007 3009 3011 3013 3015 3016 3018 3020 3022 3023 3025 3026 3027 3027 3026 3025 3025 3024 3022 3021 3019 3017 3014 3011 3008 3005 3001 2998 2995 2991 2987 2984 2980 2975 2970 2965 2960 2956 2953 2949 2945 2940 2937
3002 3004 3006 3008 3010 3012 3014 3017 3018 3020 3022 3023 3023 3023 3023 3023 3022 3020 3019 3018 3016 3014 3011 3008 3005 3001 2998 2995 2991 2987 2984 2980 2976 2972 2967 2963 2958 2953 2947 2943 2940 2936 2931
2998 3000 3002 3004 3006 3008 3010 3013 3015 3016 3018 3019 3019 3019 3019 3019 3018 3017 3016 3014 3012 3010 3007 3003 3000 2997 2993 2989 2985 2981 2977 2974 2970 2966 2962 2958 2954 2950 2945 2940 2934 2929 2925
2993 2995 2997 2999 3001 3004 3006 3008 3010 3012 3013 3014 3014 3015 3015 3014 3014 3013 3011 3010 3007 3005 3002 2998 2995 2991 2987 2983 2980 2976 2971 2967 2963 2960 2956 2952 2949 2944 2940 2935 2930 2925 2920
2989 2990 2992 2995 2997 3000 3002 3004 3005 3007 3008 3009 3009 3009 3009 3009 3008 3007 3006 3004 3001 2998 2995 2991 2988 2985 2981 2977 2973 2969 2964 2960 2956 2952 2948 2944 2940 2937 2933 2929 2925 2922 2918
2984 2986 2988 2990 2993 2996 2998 3000 3001 3002 3003 3004 3004 3004 3004 3003 3002 3001 2999 2997 2994 2991 2988 2985 2981 2977 2973 2969 2965 2961 2957 2953 2948 2944 2940 2936 2932 2928 2924 2921 2917 2913 2909
2979 2981 2983 2986 2988 2990 2993 2995 2996 2997 2998 2998 2998 2998 2998 2997 2995 2994 2992 2990 2987 2984 2981 2977 2973 2969 2965 2961 2957 2953 2949 2944 2940 2936 2932 2928 2924 2920 2916 2911 2906 2902 2898
2975 2976 2978 2980 2982 2984 2986 2988 2990 2990 2991 2992 2992 2991 2991 2990 2988 2986 2984 2982 2979 2976 2973 2969 2965 2961 2957 2953 2949 2945 2940 2936 2932 2928 2924 2920 2916 2911 2907 2902 2898 2893 2889
2969 2970 2972 2974 2975 2977 2979 2980 2981 2983 2984 2984 2984 2983 2983 2981 2980 2978 2975 2973 2969 2966 2963 2959 2955 2952 2948 2944 2940 2936 2932 2928 2923 2919 2915 2911 2908 2903 2898 2894 2888 2883 2878
2963 2965 2966 2967 2969 2970 2971 2972 2973 2975 2976 2975 2975 2974 2973 2972 2971 2969 2966 2963 2960 2956 2953 2950 2946 2942 2938 2934 2930 2926 2922 2918 2915 2911 2907 2903 2898 2894 2890 2884 2879 2874 2869
2957 2958 2958 2959 2961 2962 2964 2965 2966 2967 2967 2966 2966 2965 2963 2962 2961 2959 2956 2953 2950 2947 2943 2940 2936 2932 2928 2924 2920 2917 2914 2910 2907 2903 2899 2894 2890 2885 2880 2875 2870 2865 2860
2951 2951 2951 2952 2953 2955 2956 2957 2957 2957 2957 2957 2956 2955 2954 2953 2951 2949 2946 2943 2940 2937 2933 2930 2926 2922 2918 2915 2911 2909 2906 2903 2899 2894 2890 2886 2881 2876 2871 2865 2860 2855 2850
2944 2944 2944 2944 2945 2946 2947 2947 2948 2948 2948 2947 2947 2946 2943 2942 2941 2938 2935 2932 2929 2927 2923 2920 2916 2913 2909 2906 2903 2900 2897 2895 2891 2887 2883 2878 2873 2868 2862 2857 2851 2846 2840
2936 2936 2936 2936 2937 2937 2938 2938 2938 2938 2938 2938 2937 2935 2933 2932 2930 2927 2925 2922 2919 2916 2913 2910 2907 2903 2900 2897 2895 2892 2889 2886 2881 2877 2872 2867 2862 2857 2852 2847 2842 2837 2831
2929 2928 2928 2928 2928 2929 2929 2929 2929 2929 2928 2928 2926 2925 2923 2921 2919 2917 2914 2911 2908 2906 2903 2900 2897 2894 2892 2889 2887 2884 2880 2876 2872 2867 2862 2857 2852 2846 2841 2836 2831 2826 2821
2922 2921 2921 2920 2920 2920 2920 2920 2920 2919 2918 2917 2916 2914 2912 2910 2908 2906 2903 2901 2898 2896 2893 2890 2888 2885 2883 2881 2879 2875 2871 2867 2862 2857 2851 2846 2841 2835 2830 2825 2820 2815 2810
2915 2914 2914 2913 2913 2913 2912 2912 2911 2909 2908 2906 2904 2903 2901 2899 2898 2895 2894 2891 2889 2886 2884 2881 2879 2877 2875 2873 2870 2866 2861 2856 2851 2846 2840 2835 2830 2824 2819 2815 2810 2804 2799